Regional Weather Roundup
Issued by NWS

Home | Current Version | Previous Version | Graphics & Text | Print | Product List | Glossary On
Versions: 1 2 3 4 5 6 7 8 9 10 11 12 13 14 15 16 17 18 19 20 21 22 23 24 25 26 27 28 29 30 31 32 33 34 35 36 37 38 39 40 41 42 43 44 45 46 47 48 49 50
000
ASUS43 KBIS 291910
RWRND
NORTH DAKOTA REGIONAL WEATHER ROUNDUP
NATIONAL WEATHER SERVICE EASTERN NORTH DAKOTA/GRAND FORKS ND
200 PM CDT MON MAY 29 2017

  NOTE: "FAIR" INDICATES FEW OR NO CLOUDS BELOW 12,000 FEET WITH NO
  SIGNIFICANT WEATHER AND/OR OBSTRUCTIONS TO VISIBILITY.

NDZ001>003-009>011-017-292000-
...NORTHWEST NORTH DAKOTA...

CITY           SKY/WX    TMP DP  RH WIND       PRES   REMARKS
WILLISTON      PTSUNNY   66  34  30 NW18      30.10F
MINOT          CLOUDY    60  39  45 NW21G30   29.99F
MINOT AFB      PTSUNNY   61  39  44 NW24G35   29.98F
$$

NDZ018>021-031>035-040>046-292000-
...SOUTHWEST NORTH DAKOTA...

CITY           SKY/WX    TMP DP  RH WIND       PRES   REMARKS
BISMARCK       CLOUDY    63  38  39 NW21G29   30.04S
DICKINSON      PTSUNNY   62  33  33 NW22G31   30.08S
GARRISON         N/A     62  37  39 NW24G39   30.01F
HETTINGER      PTSUNNY   64  34  32 NW21G32   30.11F
$$

NDZ004>008-012>016-024-026-027-054-292000-
...NORTHEAST NORTH DAKOTA...

CITY           SKY/WX    TMP DP  RH WIND       PRES   REMARKS
GRAND FORKS    LGT RAIN  56  48  74 NW17G24   29.87R
GRAND FORKS AF PTSUNNY   55  50  82 N13G21    29.88R
DEVILS LAKE    LGT RAIN  50  44  80 NW13G32   29.93R
$$

NDZ022-023-025-028>030-036>039-047>053-292000-
...SOUTHEAST NORTH DAKOTA...

CITY           SKY/WX    TMP DP  RH WIND       PRES   REMARKS
JAMESTOWN      NOT AVBL
FARGO          CLOUDY    59  48  67 NW12G23   29.88F
WAHPETON       CLOUDY    59  45  58 NW21      29.91S
$$




USA.gov is the U.S. government's official web portal to all federal, state and local government web resources and services.